Weather History for KOGB - December, 2012

Change the Weather History Date:

Friday, December 28, 2012

  Actual Average Record
Temperature  
Mean Temperature 43 °F 46 °F  
Max Temperature 52 °F 56 °F - ()
Min Temperature 33 °F 35 °F - ()
Degree Days  
Heating Degree Days 22 19  
Month to date heating degree days 302 477  
Since 1 July heating degree days 752 846  
Cooling Degree Days 0 0  
Month to date cooling degree days 2 0  
Year to date cooling degree days 2322 2102  
Moisture  
Dew Point 35 °F    
Average Humidity 73    
Maximum Humidity 96    
Minimum Humidity 54    
Precipitation  
Precipitation 0.00 in 0.08 in - ()
Month to date precipitation 3.42 3.04  
Year to date precipitation 41.72 46.45  
Sea Level Pressure  
Sea Level Pressure 30.07 in    
Wind  
Wind Speed 3 mph (ENE)    
Max Wind Speed 8 mph    
Max Gust Speed 12 mph    
Visibility 9 miles    
Events      
T = Trace of Precipitation, MM = Missing Value Source: NWS Daily Summary

Daily Weather History Graph

Daily Weather History Graph

Search for Another Location

Airport or City:

Trip Planner

Search our weather history database for the weather conditions in past years. The results will help you decide how hot, cold, wet, or windy it might be!

Date:

Astronomy

Dec. 28, 2012 Rise Set
Actual Time 7:26 AM EST 5:24 PM EST
Civil Twilight 6:59 AM EST 5:51 PM EST
Nautical Twilight 6:28 AM EST 6:22 PM EST
Astronomical Twilight 5:57 AM EST 6:52 PM EST
Moon 5:56 PM EST 7:22 AM EST
Length of Visible Light 10h 52m
Length of Day
9h 57m
Full, 100% of the Moon is Illuminated
Dec 28
Full
Jan 4
Last Quarter
Jan 11
New
Jan 18
First Quarter
Jan 26
Full

Hourly Weather History & Observations

Time (EST) Temp. Windchill Dew Point Humidity Pressure Visibility Wind Dir Wind Speed Gust Speed Precip Events Conditions
12:53 AM 35.1 °F - 32.0 °F 89% 30.07 in 6.0 mi Calm Calm - N/A   Clear
1:53 AM 34.0 °F - 30.9 °F 89% 30.07 in 5.0 mi Calm Calm - N/A   Clear
2:53 AM 34.0 °F - 30.9 °F 89% 30.09 in 6.0 mi Calm Calm - N/A   Clear
3:53 AM 34.0 °F - 32.0 °F 92% 30.10 in 7.0 mi Calm Calm - N/A   Clear
4:53 AM 36.0 °F 31.1 °F 30.9 °F 82% 30.09 in 10.0 mi ENE 5.8 mph - N/A   Clear
5:53 AM 35.1 °F 31.0 °F 30.9 °F 85% 30.12 in 10.0 mi NE 4.6 mph - N/A   Clear
6:53 AM 35.1 °F - 30.0 °F 82% 30.14 in 10.0 mi Calm Calm - N/A   Clear
7:53 AM 35.1 °F 32.2 °F 30.0 °F 82% 30.15 in 10.0 mi NE 3.5 mph - N/A   Clear
8:53 AM 39.0 °F 34.8 °F 30.9 °F 73% 30.16 in 10.0 mi East 5.8 mph - N/A   Clear
9:53 AM 42.1 °F 39.2 °F 32.0 °F 67% 30.16 in 10.0 mi ENE 4.6 mph - N/A   Clear
10:53 AM 44.1 °F 40.8 °F 32.0 °F 63% 30.15 in 10.0 mi SE 5.8 mph - N/A   Clear
11:53 AM 46.9 °F - 33.1 °F 59% 30.12 in 10.0 mi ENE 4.6 mph - N/A   Clear
12:53 PM 48.9 °F - 34.0 °F 56% 30.10 in 10.0 mi ENE 4.6 mph - N/A   Clear
1:53 PM 50.0 °F - 35.1 °F 57% 30.06 in 10.0 mi East 4.6 mph - N/A   Clear
2:53 PM 52.0 °F - 36.0 °F 54% 30.06 in 10.0 mi North 4.6 mph - N/A   Clear
3:53 PM 51.1 °F - 36.0 °F 56% 30.06 in 10.0 mi ENE 4.6 mph - N/A   Overcast
4:53 PM 50.0 °F - 36.0 °F 59% 30.04 in 10.0 mi East 4.6 mph - N/A   Overcast
5:53 PM 50.0 °F - 37.9 °F 63% 30.05 in 10.0 mi Calm Calm - N/A   Overcast
6:53 PM 48.9 °F - 39.0 °F 69% 30.04 in 10.0 mi ESE 3.5 mph - N/A   Overcast
7:53 PM 48.0 °F - 39.0 °F 71% 30.04 in 10.0 mi Calm Calm - N/A   Mostly Cloudy
8:53 PM 46.9 °F - 39.0 °F 74% 30.02 in 10.0 mi NE 3.5 mph - N/A   Clear
9:53 PM 46.0 °F 43.9 °F 39.0 °F 76% 29.99 in 10.0 mi East 4.6 mph - N/A   Clear
10:53 PM 46.0 °F 43.9 °F 39.9 °F 79% 29.96 in 10.0 mi ENE 4.6 mph - N/A   Clear
11:53 PM 46.9 °F - 42.1 °F 83% 29.94 in 10.0 mi ENE 3.5 mph - N/A   Scattered Clouds